Time,TemperatureF,DewpointF,PressureIn,WindDirection,WindDirectionDegrees,WindSpeedMPH,WindSpeedGustMPH,Humidity,HourlyPrecipIn,Conditions,Clouds,dailyrainin,SoftwareType,DateUTC
2013-01-29 00:01:00,47.0,39.0,30.27,NW,323,2.0,-999.0,73,-99.99,,,-99.99,,2013-01-29 08:01:00,
2013-01-29 00:11:00,47.0,39.0,30.27,NW,323,2.0,-999.0,73,-99.99,,,-99.99,,2013-01-29 08:11:00,
2013-01-29 00:21:00,47.0,39.0,30.27,NNW,346,2.0,-999.0,75,-99.99,,,-99.99,,2013-01-29 08:21:00,
2013-01-29 00:31:00,47.0,38.0,30.27,NNW,336,3.0,-999.0,72,-99.99,,,-99.99,,2013-01-29 08:31:00,
2013-01-29 00:41:00,47.0,38.0,30.27,NNW,336,3.0,-999.0,72,-99.99,,,-99.99,,2013-01-29 08:41:00,
2013-01-29 00:52:00,47.0,38.0,30.27,NW,325,2.0,-999.0,71,-99.99,,,-99.99,,2013-01-29 08:52:00,
2013-01-29 01:01:00,47.0,39.0,30.27,NNW,333,3.0,-999.0,73,-99.99,,,-99.99,,2013-01-29 09:01:00,
2013-01-29 01:11:00,47.0,39.0,30.27,NNW,333,3.0,-999.0,73,-99.99,,,-99.99,,2013-01-29 09:11:00,
2013-01-29 01:21:00,46.0,39.0,30.27,North,355,4.0,-999.0,76,-99.99,,,-99.99,,2013-01-29 09:21:00,
2013-01-29 01:31:00,46.0,39.0,30.27,NNW,341,3.0,-999.0,77,-99.99,,,-99.99,,2013-01-29 09:31:00,
2013-01-29 01:42:00,46.0,39.0,30.27,NNW,341,3.0,-999.0,77,-99.99,,,-99.99,,2013-01-29 09:42:00,
2013-01-29 01:51:00,46.0,40.0,30.27,NW,315,4.0,-999.0,78,-99.99,,,-99.99,,2013-01-29 09:51:00,
2013-01-29 02:01:00,46.0,40.0,30.27,NW,323,4.0,-999.0,79,-99.99,,,-99.99,,2013-01-29 10:01:00,
2013-01-29 02:11:00,46.0,40.0,30.27,NW,323,4.0,-999.0,79,-99.99,,,-99.99,,2013-01-29 10:11:00,
2013-01-29 02:21:00,46.0,40.0,30.27,NW,323,4.0,-999.0,80,-99.99,,,-99.99,,2013-01-29 10:21:00,
2013-01-29 02:32:00,46.0,40.0,30.27,North,9,4.0,-999.0,80,-99.99,,,-99.99,,2013-01-29 10:32:00,
2013-01-29 02:41:00,46.0,40.0,30.27,North,9,4.0,-999.0,80,-99.99,,,-99.99,,2013-01-29 10:41:00,
2013-01-29 02:51:00,46.0,40.0,30.28,NNW,334,4.0,-999.0,80,-99.99,,,-99.99,,2013-01-29 10:51:00,
2013-01-29 03:01:00,46.0,40.0,30.28,North,9,3.0,-999.0,80,-99.99,,,-99.99,,2013-01-29 11:01:00,
2013-01-29 03:11:00,46.0,40.0,30.28,North,9,3.0,-999.0,80,-99.99,,,-99.99,,2013-01-29 11:11:00,
2013-01-29 03:21:00,46.0,40.0,30.27,NNW,330,4.0,-999.0,80,-99.99,,,-99.99,,2013-01-29 11:21:00,
2013-01-29 03:31:00,46.0,39.0,30.27,NNW,347,4.0,-999.0,77,-99.99,,,-99.99,,2013-01-29 11:31:00,
2013-01-29 03:42:00,46.0,39.0,30.27,NNW,347,4.0,-999.0,77,-99.99,,,-99.99,,2013-01-29 11:42:00,
2013-01-29 03:52:00,46.0,39.0,30.28,NNE,17,4.0,-999.0,75,-99.99,,,-99.99,,2013-01-29 11:52:00,
2013-01-29 04:02:00,46.0,39.0,30.27,North,349,4.0,-999.0,75,-99.99,,,-99.99,,2013-01-29 12:02:00,
2013-01-29 04:12:00,46.0,39.0,30.27,North,349,4.0,-999.0,75,-99.99,,,-99.99,,2013-01-29 12:12:00,
2013-01-29 04:21:00,46.0,39.0,30.27,NNW,348,5.0,-999.0,76,-99.99,,,-99.99,,2013-01-29 12:21:00,
2013-01-29 04:32:00,46.0,39.0,30.27,NNW,345,4.0,-999.0,77,-99.99,,,-99.99,,2013-01-29 12:32:00,
2013-01-29 04:42:00,46.0,39.0,30.27,NNW,345,4.0,-999.0,77,-99.99,,,-99.99,,2013-01-29 12:42:00,
2013-01-29 04:52:00,46.0,39.0,30.27,North,349,3.0,-999.0,77,-99.99,,,-99.99,,2013-01-29 12:52:00,
2013-01-29 05:01:00,46.0,39.0,30.26,NNW,329,4.0,-999.0,77,-99.99,,,-99.99,,2013-01-29 13:01:00,
2013-01-29 05:11:00,46.0,39.0,30.26,NNW,329,4.0,-999.0,77,-99.99,,,-99.99,,2013-01-29 13:11:00,
2013-01-29 05:22:00,46.0,39.0,30.26,North,355,4.0,-999.0,77,-99.99,,,-99.99,,2013-01-29 13:22:00,
2013-01-29 05:31:00,46.0,39.0,30.25,NW,321,4.0,-999.0,76,-99.99,,,-99.99,,2013-01-29 13:31:00,
2013-01-29 05:42:00,46.0,39.0,30.25,NW,321,4.0,-999.0,76,-99.99,,,-99.99,,2013-01-29 13:42:00,
2013-01-29 05:52:00,46.0,39.0,30.25,NW,323,4.0,-999.0,75,-99.99,,,-99.99,,2013-01-29 13:52:00,
2013-01-29 06:01:00,46.0,38.0,30.26,North,9,3.0,-999.0,74,-99.99,,,-99.99,,2013-01-29 14:01:00,
2013-01-29 06:12:00,46.0,38.0,30.27,WSW,255,2.0,-999.0,74,-99.99,,,-99.99,,2013-01-29 14:12:00,
2013-01-29 06:21:00,46.0,38.0,30.27,WSW,255,2.0,-999.0,74,-99.99,,,-99.99,,2013-01-29 14:21:00,
2013-01-29 06:32:00,46.0,38.0,30.27,WSW,255,2.0,-999.0,74,-99.99,,,-99.99,,2013-01-29 14:32:00,
2013-01-29 06:43:00,46.0,38.0,30.27,WSW,255,2.0,-999.0,74,-99.99,,,-99.99,,2013-01-29 14:43:00,
2013-01-29 06:52:00,45.0,38.0,30.27,NNE,12,2.0,-999.0,76,-99.99,,,-99.99,,2013-01-29 14:52:00,
2013-01-29 07:02:00,45.0,38.0,30.28,NNE,18,1.0,-999.0,76,-99.99,,,-99.99,,2013-01-29 15:02:00,
2013-01-29 07:11:00,45.0,38.0,30.28,NNE,18,1.0,-999.0,76,-99.99,,,-99.99,,2013-01-29 15:11:00,
2013-01-29 07:21:00,45.0,39.0,30.27,WNW,297,2.0,-999.0,78,-99.99,,,-99.99,,2013-01-29 15:21:00,
2013-01-29 07:32:00,45.0,39.0,30.27,North,5,4.0,-999.0,79,-99.99,,,-99.99,,2013-01-29 15:32:00,
2013-01-29 07:42:00,45.0,39.0,30.27,North,5,4.0,-999.0,79,-99.99,,,-99.99,,2013-01-29 15:42:00,
2013-01-29 07:52:00,45.0,39.0,30.27,NNE,15,4.0,-999.0,79,-99.99,,,-99.99,,2013-01-29 15:52:00,
2013-01-29 08:02:00,45.0,38.0,30.27,ENE,73,3.0,-999.0,77,-99.99,,,-99.99,,2013-01-29 16:02:00,
2013-01-29 08:12:00,45.0,38.0,30.27,ENE,73,3.0,-999.0,77,-99.99,,,-99.99,,2013-01-29 16:12:00,
2013-01-29 08:21:00,46.0,38.0,30.27,North,355,2.0,-999.0,73,-99.99,,,-99.99,,2013-01-29 16:21:00,
2013-01-29 08:32:00,46.0,38.0,30.28,North,360,2.0,-999.0,74,-99.99,,,-99.99,,2013-01-29 16:32:00,
2013-01-29 08:42:00,46.0,38.0,30.28,North,360,2.0,-999.0,74,-99.99,,,-99.99,,2013-01-29 16:42:00,
2013-01-29 08:52:00,46.0,39.0,30.28,NNW,346,3.0,-999.0,75,-99.99,,,-99.99,,2013-01-29 16:52:00,
2013-01-29 09:02:00,46.0,39.0,30.28,North,9,2.0,-999.0,76,-99.99,,,-99.99,,2013-01-29 17:02:00,
2013-01-29 09:12:00,46.0,39.0,30.28,North,9,2.0,-999.0,76,-99.99,,,-99.99,,2013-01-29 17:12:00,
2013-01-29 09:21:00,47.0,39.0,30.29,NNW,348,2.0,-999.0,73,-99.99,,,-99.99,,2013-01-29 17:21:00,
2013-01-29 09:32:00,49.0,41.0,30.29,North,360,0.0,-999.0,73,-99.99,,,-99.99,,2013-01-29 17:32:00,
2013-01-29 09:42:00,49.0,41.0,30.29,North,360,0.0,-999.0,73,-99.99,,,-99.99,,2013-01-29 17:42:00,
2013-01-29 09:52:00,50.0,41.0,30.29,NE,41,0.0,-999.0,71,-99.99,,,-99.99,,2013-01-29 17:52:00,
2013-01-29 10:03:00,50.0,42.0,30.29,ESE,105,0.0,-999.0,73,-99.99,,,-99.99,,2013-01-29 18:03:00,
2013-01-29 10:12:00,50.0,42.0,30.29,ESE,105,0.0,-999.0,73,-99.99,,,-99.99,,2013-01-29 18:12:00,
2013-01-29 10:22:00,51.0,42.0,30.29,NNW,346,0.0,-999.0,72,-99.99,,,-99.99,,2013-01-29 18:22:00,
2013-01-29 10:33:00,51.0,42.0,30.29,NNW,346,0.0,-999.0,72,-99.99,,,-99.99,,2013-01-29 18:33:00,
2013-01-29 10:42:00,51.0,42.0,30.29,NNW,346,0.0,-999.0,72,-99.99,,,-99.99,,2013-01-29 18:42:00,
2013-01-29 10:51:00,51.0,43.0,30.29,West,266,1.0,-999.0,74,-99.99,,,-99.99,,2013-01-29 18:51:00,
2013-01-29 11:02:00,51.0,43.0,30.29,SW,223,1.0,-999.0,74,-99.99,,,-99.99,,2013-01-29 19:02:00,
2013-01-29 11:11:00,51.0,43.0,30.29,SW,223,1.0,-999.0,74,-99.99,,,-99.99,,2013-01-29 19:11:00,
2013-01-29 11:22:00,52.0,43.0,30.29,SSE,165,1.0,-999.0,71,-99.99,,,-99.99,,2013-01-29 19:22:00,
2013-01-29 11:32:00,53.0,43.0,30.29,SE,136,1.0,-999.0,69,-99.99,,,-99.99,,2013-01-29 19:32:00,
2013-01-29 11:42:00,53.0,43.0,30.29,SE,136,1.0,-999.0,69,-99.99,,,-99.99,,2013-01-29 19:42:00,
2013-01-29 11:51:00,53.0,43.0,30.28,SSE,164,1.0,-999.0,68,-99.99,,,-99.99,,2013-01-29 19:51:00,
2013-01-29 12:02:00,53.0,42.0,30.28,South,180,2.0,-999.0,66,-99.99,,,-99.99,,2013-01-29 20:02:00,
2013-01-29 12:12:00,53.0,42.0,30.28,South,180,2.0,-999.0,66,-99.99,,,-99.99,,2013-01-29 20:12:00,
2013-01-29 12:21:00,54.0,42.0,30.27,SSE,148,1.0,-999.0,64,-99.99,,,-99.99,,2013-01-29 20:21:00,
2013-01-29 12:32:00,55.0,43.0,30.27,SE,128,0.0,-999.0,65,-99.99,,,-99.99,,2013-01-29 20:32:00,
2013-01-29 12:42:00,55.0,43.0,30.27,SE,128,0.0,-999.0,65,-99.99,,,-99.99,,2013-01-29 20:42:00,
2013-01-29 12:52:00,54.0,42.0,30.26,South,181,2.0,-999.0,64,-99.99,,,-99.99,,2013-01-29 20:52:00,
2013-01-29 13:02:00,54.0,43.0,30.26,SE,144,1.0,-999.0,65,-99.99,,,-99.99,,2013-01-29 21:02:00,
2013-01-29 13:12:00,54.0,43.0,30.26,SE,144,1.0,-999.0,65,-99.99,,,-99.99,,2013-01-29 21:12:00,
2013-01-29 13:21:00,54.0,41.0,30.25,South,180,2.0,-999.0,62,-99.99,,,-99.99,,2013-01-29 21:21:00,
2013-01-29 13:33:00,54.0,43.0,30.25,South,185,1.0,-999.0,65,-99.99,,,-99.99,,2013-01-29 21:33:00,
2013-01-29 13:42:00,54.0,43.0,30.25,South,185,1.0,-999.0,65,-99.99,,,-99.99,,2013-01-29 21:42:00,
2013-01-29 13:52:00,55.0,42.0,30.24,South,189,2.0,-999.0,61,-99.99,,,-99.99,,2013-01-29 21:52:00,
2013-01-29 14:01:00,55.0,42.0,30.24,South,184,2.0,-999.0,61,-99.99,,,-99.99,,2013-01-29 22:01:00,
2013-01-29 14:12:00,55.0,42.0,30.24,South,184,2.0,-999.0,61,-99.99,,,-99.99,,2013-01-29 22:12:00,
2013-01-29 14:21:00,54.0,42.0,30.23,SE,130,2.0,-999.0,64,-99.99,,,-99.99,,2013-01-29 22:21:00,
2013-01-29 14:32:00,54.0,42.0,30.22,South,176,1.0,-999.0,63,-99.99,,,-99.99,,2013-01-29 22:32:00,
2013-01-29 14:42:00,54.0,42.0,30.22,South,176,1.0,-999.0,63,-99.99,,,-99.99,,2013-01-29 22:42:00,
2013-01-29 14:52:00,54.0,42.0,30.22,SSW,205,2.0,-999.0,63,-99.99,,,-99.99,,2013-01-29 22:52:00,
2013-01-29 15:02:00,55.0,43.0,30.22,SSW,208,1.0,-999.0,63,-99.99,,,-99.99,,2013-01-29 23:02:00,
2013-01-29 15:11:00,55.0,43.0,30.22,SSW,208,1.0,-999.0,63,-99.99,,,-99.99,,2013-01-29 23:11:00,
2013-01-29 15:22:00,56.0,43.0,30.21,SSE,159,1.0,-999.0,62,-99.99,,,-99.99,,2013-01-29 23:22:00,
2013-01-29 15:32:00,55.0,43.0,30.21,East,86,1.0,-999.0,64,-99.99,,,-99.99,,2013-01-29 23:32:00,
2013-01-29 15:42:00,55.0,43.0,30.21,East,86,1.0,-999.0,64,-99.99,,,-99.99,,2013-01-29 23:42:00,
2013-01-29 15:52:00,54.0,42.0,30.22,South,178,2.0,-999.0,63,-99.99,,,-99.99,,2013-01-29 23:52:00,
2013-01-29 16:02:00,54.0,43.0,30.21,South,178,1.0,-999.0,66,-99.99,,,-99.99,,2013-01-30 00:02:00,
2013-01-29 16:11:00,54.0,43.0,30.21,South,178,1.0,-999.0,66,-99.99,,,-99.99,,2013-01-30 00:11:00,
2013-01-29 16:21:00,54.0,42.0,30.22,South,174,0.0,-999.0,64,-99.99,,,-99.99,,2013-01-30 00:21:00,
2013-01-29 16:32:00,54.0,43.0,30.21,SE,134,1.0,-999.0,65,-99.99,,,-99.99,,2013-01-30 00:32:00,
2013-01-29 16:42:00,54.0,43.0,30.21,SE,134,1.0,-999.0,65,-99.99,,,-99.99,,2013-01-30 00:42:00,
2013-01-29 16:52:00,53.0,42.0,30.21,SSE,157,1.0,-999.0,67,-99.99,,,-99.99,,2013-01-30 00:52:00,
2013-01-29 17:01:00,53.0,43.0,30.21,East,87,1.0,-999.0,68,-99.99,,,-99.99,,2013-01-30 01:01:00,
2013-01-29 17:11:00,53.0,43.0,30.21,East,87,1.0,-999.0,68,-99.99,,,-99.99,,2013-01-30 01:11:00,
2013-01-29 17:22:00,52.0,42.0,30.21,ESE,109,1.0,-999.0,69,-99.99,,,-99.99,,2013-01-30 01:22:00,
2013-01-29 17:32:00,52.0,42.0,30.21,ESE,109,1.0,-999.0,69,-99.99,,,-99.99,,2013-01-30 01:32:00,
2013-01-29 17:42:00,52.0,42.0,30.21,ESE,109,1.0,-999.0,69,-99.99,,,-99.99,,2013-01-30 01:42:00,
2013-01-29 17:51:00,52.0,42.0,30.21,ESE,109,1.0,-999.0,69,-99.99,,,-99.99,,2013-01-30 01:51:00,
2013-01-29 18:02:00,51.0,43.0,30.21,ESE,105,0.0,-999.0,73,-99.99,,,-99.99,,2013-01-30 02:02:00,
2013-01-29 18:12:00,51.0,43.0,30.21,ESE,105,0.0,-999.0,73,-99.99,,,-99.99,,2013-01-30 02:12:00,
2013-01-29 18:21:00,50.0,43.0,30.22,NNE,22,0.0,-999.0,76,-99.99,,,-99.99,,2013-01-30 02:21:00,
2013-01-29 18:33:00,49.0,42.0,30.22,NNE,22,0.0,-999.0,77,-99.99,,,-99.99,,2013-01-30 02:33:00,
2013-01-29 18:42:00,49.0,42.0,30.22,NNE,22,0.0,-999.0,77,-99.99,,,-99.99,,2013-01-30 02:42:00,
2013-01-29 18:52:00,49.0,42.0,30.22,NE,42,1.0,-999.0,77,-99.99,,,-99.99,,2013-01-30 02:52:00,
2013-01-29 19:02:00,50.0,43.0,30.22,ENE,69,1.0,-999.0,77,-99.99,,,-99.99,,2013-01-30 03:02:00,
2013-01-29 19:11:00,50.0,43.0,30.22,ENE,69,1.0,-999.0,77,-99.99,,,-99.99,,2013-01-30 03:11:00,
2013-01-29 19:21:00,49.0,42.0,30.22,ENE,76,1.0,-999.0,77,-99.99,,,-99.99,,2013-01-30 03:21:00,
2013-01-29 19:31:00,49.0,42.0,30.23,ENE,75,1.0,-999.0,78,-99.99,,,-99.99,,2013-01-30 03:31:00,
2013-01-29 19:42:00,49.0,42.0,30.23,ENE,75,1.0,-999.0,78,-99.99,,,-99.99,,2013-01-30 03:42:00,
2013-01-29 19:51:00,49.0,42.0,30.24,ENE,77,1.0,-999.0,77,-99.99,,,-99.99,,2013-01-30 03:51:00,
2013-01-29 20:01:00,49.0,42.0,30.24,ENE,76,1.0,-999.0,76,-99.99,,,-99.99,,2013-01-30 04:01:00,
2013-01-29 20:11:00,49.0,42.0,30.24,ENE,76,1.0,-999.0,76,-99.99,,,-99.99,,2013-01-30 04:11:00,
2013-01-29 20:21:00,50.0,42.0,30.24,ESE,108,0.0,-999.0,75,-99.99,,,-99.99,,2013-01-30 04:21:00,
2013-01-29 20:32:00,50.0,42.0,30.24,ESE,108,0.0,-999.0,75,-99.99,,,-99.99,,2013-01-30 04:32:00,
2013-01-29 20:41:00,50.0,42.0,30.24,ESE,108,0.0,-999.0,75,-99.99,,,-99.99,,2013-01-30 04:41:00,
2013-01-29 20:51:00,50.0,42.0,30.23,ESE,107,0.0,-999.0,75,-99.99,,,-99.99,,2013-01-30 04:51:00,
2013-01-29 21:03:00,49.0,42.0,30.24,ESE,105,1.0,-999.0,76,-99.99,,,-99.99,,2013-01-30 05:03:00,
2013-01-29 21:11:00,49.0,42.0,30.25,ESE,105,0.0,-999.0,77,-99.99,,,-99.99,,2013-01-30 05:11:00,
2013-01-29 21:22:00,49.0,42.0,30.25,ESE,105,0.0,-999.0,77,-99.99,,,-99.99,,2013-01-30 05:22:00,
2013-01-29 21:32:00,49.0,41.0,30.24,NNE,24,1.0,-999.0,75,-99.99,,,-99.99,,2013-01-30 05:32:00,
2013-01-29 21:42:00,49.0,41.0,30.24,NNE,24,1.0,-999.0,75,-99.99,,,-99.99,,2013-01-30 05:42:00,
2013-01-29 21:52:00,50.0,41.0,30.24,NNE,24,1.0,-999.0,72,-99.99,,,-99.99,,2013-01-30 05:52:00,
2013-01-29 22:02:00,50.0,41.0,30.23,NNE,23,2.0,-999.0,71,-99.99,,,-99.99,,2013-01-30 06:02:00,
2013-01-29 22:11:00,50.0,41.0,30.23,NNE,23,2.0,-999.0,71,-99.99,,,-99.99,,2013-01-30 06:11:00,
2013-01-29 22:21:00,51.0,42.0,30.24,NNE,22,1.0,-999.0,71,-99.99,,,-99.99,,2013-01-30 06:21:00,
2013-01-29 22:31:00,50.0,42.0,30.23,NW,323,3.0,-999.0,73,-99.99,,,-99.99,,2013-01-30 06:31:00,
2013-01-29 22:41:00,50.0,42.0,30.23,NW,323,3.0,-999.0,73,-99.99,,,-99.99,,2013-01-30 06:41:00,
2013-01-29 22:51:00,50.0,42.0,30.23,NNW,346,1.0,-999.0,73,-99.99,,,-99.99,,2013-01-30 06:51:00,
2013-01-29 23:01:00,51.0,42.0,30.23,SSW,205,2.0,-999.0,70,-99.99,,,-99.99,,2013-01-30 07:01:00,
2013-01-29 23:11:00,51.0,42.0,30.23,SSW,205,2.0,-999.0,70,-99.99,,,-99.99,,2013-01-30 07:11:00,
2013-01-29 23:21:00,51.0,42.0,30.22,West,281,1.0,-999.0,70,-99.99,,,-99.99,,2013-01-30 07:21:00,
2013-01-29 23:31:00,51.0,42.0,30.22,NE,51,1.0,-999.0,70,-99.99,,,-99.99,,2013-01-30 07:31:00,
2013-01-29 23:41:00,51.0,42.0,30.22,NE,51,1.0,-999.0,70,-99.99,,,-99.99,,2013-01-30 07:41:00,
2013-01-29 23:52:00,51.0,42.0,30.23,ESE,103,0.0,-999.0,70,-99.99,,,-99.99,,2013-01-30 07:52:00,